Current Version              Previous Version:    01  02  03  04  05  06  07  08  09  10  11  12  13  14  15  16  17  18  19  20  21  22  23  24  25  26  27  28  29  30  
   31  32  33  34  35  36  37  38  39  40  41  42  43  44  45  46  47  48  49  50  51  52  53  54  55  56  57  58  59  60  

[Printable]
626
ASUS44 KEWX 021710
RWRTX
SOUTH TEXAS REGIONAL WEATHER ROUNDUP
NATIONAL WEATHER SERVICE AUSTIN/SAN ANTONIO TX
1200 PM CDT TUE SEP 02 2014

NOTE: "FAIR" INDICATED FEW OR NO CLOUDS BELOW 12,000 FEET WITH NO
SIGNIFICANT WEATHER AND/OR OBSTRUCTIONS TO VISIBILITY.

* - THESE STATIONS ARE NOT NWS OR FAA STATIONS...AND ARE NOT SUBJECT
    TO NWS AND FAA QUALITY CONTROL.

TXZ171-172-183>190-021800-
TEXAS HILL COUNTRY AND EDWARDS PLATEAU

CITY           SKY/WX    TMP DP  RH WIND       PRES   REMARKS
JUNCTION       PTSUNNY   86  67  52 S13G20    29.99S
*LLANO         MOSUNNY   91  68  46 SE9G16    30.01R HX  95
BURNET         PTSUNNY   86  68  54 S9        30.02R
*HORSESHOE BAY MOSUNNY   89  67  47 S7        29.99R HX  92
*KERRVILLE     MOSUNNY   86  70  57 S15G21    30.01R HX  91
*FREDERICKSBRG CLOUDY    86  66  50 S9G16     30.01R
*ROCKSPRINGS   PTSUNNY   84  68  58 SE14G21   30.05R
*BOERNE STAGE  PTSUNNY   86  66  51 SE7G17    30.01S
*CASTROVILLE   MOSUNNY   89  67  48 SE10G16   29.97F HX  92
HONDO          MOSUNNY   91  70  49 S15G21    29.98S HX  96
*UVALDE        MOSUNNY   89  71  54 SE14      29.96S HX  95
DEL RIO        MOSUNNY   88  70  55 SE12      29.93S HX  93
LAUGHLIN AFB   CLOUDY    87  70  57 SE13G18   29.94F HX  92
CARRIZO SPRGS  PTSUNNY   90  70  51 SE9G17    29.92S HX  95
$$

TXZ173-191>194-202-209-217>225-228-021800-
CENTRAL AND SOUTH CENTRAL TEXAS

CITY           SKY/WX    TMP DP  RH WIND       PRES   REMARKS
GEORGETOWN     PTSUNNY   91  72  52 SE14G21   29.99S HX  98
AUSTIN/BERGSTM PTSUNNY   90  71  53 S13       29.97S HX  96
AUSTIN/MABRY   MOSUNNY   93  71  48 S8        29.98S HX 100
*AUSTIN/EXEC   PTSUNNY   90  70  51 S12       29.98S HX  95
*LAGO VISTA    MOSUNNY   91  69  48 SE7G17    30.01R HX  95
SAN MARCOS     PTSUNNY   91  70  49 SE14G20   29.98S HX  97
NEW BRAUNFELS  PTSUNNY   89  72  56 S13       29.96R HX  96
RANDOLPH AFB   CLOUDY    89  70  53 S10       29.97S HX  94
PT SAN ANTONIO MOSUNNY   89  71  54 SE9       29.95S HX  95
SAN ANTONIO    MOSUNNY   90  71  53 SE10      29.97S HX  96
STINSON FIELD  MOSUNNY   91  71  51 SE10G18   29.94F HX  97
*PLEASANTON    MOSUNNY   91  70  49 SE12      29.95S HX  96
*LA GRANGE     MOSUNNY   93  75  55 SE9G17    29.95S HX 104
*GIDDINGS      PTSUNNY   90  71  52 S6        30.01F HX  96
*GONZALES      PTSUNNY   91  74  58 S12       29.95F HX 100
$$

TXZ163>164-176>182-195>201-210>213-226-227-235-021800-
SOUTHEAST TEXAS

CITY           SKY/WX    TMP DP  RH WIND       PRES   REMARKS
COLLEGE STN    MOSUNNY   91  73  55 S14       29.98F HX  99
*BRYAN         CLOUDY    90  74  58 S8        29.99S HX  99
*CALDWELL      MOSUNNY   90  72  55 S12G21    30.01S HX  96
*CROCKETT      SUNNY     93  77  59 S10       30.04S HX 107
*BRENHAM       MOSUNNY   93  73  53 SE12G17   29.99S HX 102
HUNTSVILLE     PTSUNNY   89  72  56 S6        30.00S HX  96
CONROE         PTSUNNY   88  73  61 S14       30.00S HX  95
HOUSTON BUSH   MOSUNNY   91  73  55 S12       29.99S HX 100
HOUSTON HOBBY  MOSUNNY   90  74  59 S14       29.99R HX  99
*HOUSTON SW AP MOSUNNY   91  72  52 S12G21    30.00R HX  98
PEARLAND       MOSUNNY   91  73  55 S18G31    30.01R HX  99
HOUSTON HOOKS  PTSUNNY   91  72  53 S9G16     29.99S HX  98
ELLINGTON FLD  PTSUNNY   91  73  55 S15       30.01R HX 100
SUGAR LAND     PTSUNNY   89  73  59 S18G28    29.99R HX  97
*HOUSTON EXEC  PTSUNNY   90  90 100 S12G21    29.99S HX 129
*CLEVELAND MUN MOSUNNY   85  79  83 CALM      30.01F HX  98
*WHARTON       MOSUNNY   92  73  53 SE20      29.98S HX  99
$$

TXZ214>216-236>238-021800-
THE UPPER TEXAS COAST

CITY           SKY/WX    TMP DP  RH WIND       PRES   REMARKS
*ORANGE        MOSUNNY   89  75  63 S10       30.05R HX  98
PORT ARTHUR    PTSUNNY   89  76  65 S15       30.02R HX 100
GALVESTON      MOSUNNY   90  77  65 SE18      30.01R HX 103
ANGLETON       MOSUNNY   89  76  65 S20       29.99S HX 100
*BAY CITY      MOSUNNY   91  75  60 SE15G23   29.98S HX 101
PALACIOS       PTSUNNY   89  75  63 SE21G26   29.98R HX  99
$$

TXZ229>234-239>247-021800-
TEXAS COASTAL BEND AND RIO GRANDE PLAINS

CITY           SKY/WX    TMP DP  RH WIND       PRES   REMARKS
VICTORIA       MOSUNNY   92  75  57 S22       29.96S HX 103
*BEEVILLE      PTSUNNY   88  75  65 SE9G16    29.94F HX  97
ROCKPORT       SUNNY     91  76  61 SE16      29.95R HX 103
*PORT ARANSAS  MOSUNNY   89  78  70 SE14G20   29.94S HX 102
*PORT LAVACA   PTSUNNY   89  76  66 S14       29.96S HX 100
*INGLESIDE     MOSUNNY   92  75  56 SE20G28   29.93F HX 103
CORPUS CHRISTI MOSUNNY   89  76  65 SE17G24   29.93F HX 100
CORPUS NAS     MOSUNNY   91  77  63 SE16      29.93F HX 104
*ROBSTOWN      MOSUNNY   94  72  48 SE17G24   29.93S HX 101
ALICE          LGT RAIN  95  73  48 SE17G24   29.92S HX 104
KINGSVILLE NAS PTSUNNY   94  77  57 SE18G24   29.92F HX 108
COTULLA        MOSUNNY   91  71  51 S10G17    29.94S HX  97
*FAITH RANCH   MOSUNNY   90  72  55 S12G21    29.94R HX  96
LAREDO         PTSUNNY   93  72  50 SE13G18   29.95S HX 100
$$

TXZ248>255-021800-
DEEP SOUTH TEXAS

CITY           SKY/WX    TMP DP  RH WIND       PRES   REMARKS
BROWNSVILLE    MOSUNNY   90  76  63 E16       29.89S HX 101
PORT ISABEL    SUNNY     90  75  61 E17       29.89F HX 100
*SOUTH PADRE   SUNNY     90  77  66 E14       29.90S HX 102
HARLINGEN      MOSUNNY   92  74  55 E17       29.88F HX 101
*HEBBRONVILLE  MOSUNNY   91  69  49 SE15      29.93F HX  95
MCALLEN        PTSUNNY   88  75  65 E3        29.90S HX  97
*WESLACO       NOT AVBL
FALFURRIAS     PTSUNNY   87  71  58 SE8       29.91S HX  92
EDINBURG       PTSUNNY   92  71  49 E8        29.90S HX  99
*ZAPATA        PTSUNNY   91  68  46 SE9       29.91S HX  95
$$

TXZ213>215-236>238-242>244-246-247-251-254-255-021800-
CMAN STATIONS

STATION/POSITION TIME  TEMP    WIND        PRES    WAVE
                       AIR SEA DIR/SP/G            HT/PER
                 (UTC) (F)     (DEG/KT/KT) (MB)    (FT/S)
SABINE PASS      1700   86 85  170/ 14/ 19 1016.6
SEA RIM ST PARK  1700   86     160/ 12/ 13 1017.2
NORTH JETTY/GLS  1700   85 84  190/ 15/ 20   N/A
EAGLE POINT      1700   85 85  180/ 17/ 20 1015.9
MORGANS POINT    1700   88     160/ 10/ 13 1016.0
MISSION/ARANSAS  1600   83     140/ 15     1015.0
PORT O`CONNOR    1700          130/ 18/ 20   N/A
PORT ARANSAS     1700   85 85  110/ 17/ 19 1014.5
MALAQUITE BEACH  1700   85 85  110/ 16/ 18 1012.9
BAFFIN BAY       1700   86 83  120/ 16/ 19 1013.3
PORT ISABEL      1700   86 83  120/  5/ 12 1012.8
$$

GMZ080-GMZ150>470-021800-
OFFSHORE BUOY REPORTS

STATION/POSITION TIME  TEMP    WIND        PRES    WAVE
                       AIR SEA DIR/SP/G            HT/PER
                 (UTC) (F)     (DEG/KT/KT) (MB)    (FT/S)
20 E GALVESTON   1700   85 85  150/ 16/ 17 1015.6    4/ 7
90 E PT ARANSAS  1700   85 85  120/ 16/ 19 1014.8    6/ 7
35 NE PT MANSFLD 1700   85 85  130/ 19/ 21 1012.5    7/ 8
200 E PT ISABEL  1700   85 85  120/ 19/ 23 1014.1    8/10
$$